Lexington Weather

Lexington, Massachusetts, USA

34°F
4/16/2021 9:24am 
  • Lexington Conditions: Snow, Mist, Overcast
  • Temperature: 34.2°F / 1.2°CColder 3.9°F than last hour.
  • Dew Point: 32.9°FDecreased 4.0°Fsince last hour.
  • Relative Humidity: 95
  • Wind: Wind from N N Calm, 10-min avg: 1 mph, gust: 2 mph
  • Barometer: 29.48 inFalling 0.04  inHg/hr Falling Slowly
  • Visibility: ½ mile
  • Snow Today: 0.3 in
  •   

Regional Weather Roundup
for Boston / Norton, MA

        
000
ASUS41 KBOX 140404
RWRBOX

REGIONAL WEATHER ROUNDUP
NATIONAL WEATHER SERVICE BOSTON/NORTON MA
1200 AM EDT WED APR 14 2021

NOTE:  "FAIR" INDICATES FEW OR NO CLOUDS BELOW 12,000 FEET WITH NO 
SIGNIFICANT WEATHER AND/OR OBSTRUCTIONS TO VISIBILITY.

MAZALL-140500-
EASTERN MASSACHUSETTS
  
CITY           SKY/WX    TMP DP  RH WIND       PRES   REMARKS
BOSTON         PTCLDY    47  40  76 SE5       30.07R                  
BEVERLY        NOT AVBL                                               
LAWRENCE       CLOUDY    48  39  71 SE3       30.08R                  
BEDFORD        CLOUDY    51  39  63 SE6       30.04R                  
BLUE HILL        N/A     44  37  76 SE10      30.04R                  
NORWOOD        MOCLDY    47  38  71 CALM      30.06R                  
MARSHFIELD     PTCLDY    41  39  93 CALM      30.06S                  
PLYMOUTH       CLEAR     38  36  92 CALM      30.06R                  
TAUNTON        CLEAR     40  37  89 CALM      30.05S                  
NEW BEDFORD    CLEAR     40  38  93 CALM      30.05F                  
$$

MAZALL-140500-
CAPE COD AND THE ISLANDS
  
CITY           SKY/WX    TMP DP  RH WIND       PRES   REMARKS
FALMOUTH       NOT AVBL                                               
HYANNIS        CLEAR     38  35  89 CALM      30.05R                  
CHATHAM        CLEAR     40  36  86 NE5       30.06S                  
PROVINCETOWN   CLEAR     37  36  96 CALM      30.08                   
NANTUCKET      PTCLDY    39  37  92 NE6       30.05S                  
MARTHAS VNYRD  PTCLDY    36  34  92 CALM      30.06R                  
$$
 
MAZALL-140500-
CENTRAL AND WESTERN MASSACHUSETTS
  
CITY           SKY/WX    TMP DP  RH WIND       PRES   REMARKS
WORCESTER      CLOUDY    51  39  63 W8        30.03F                  
FITCHBURG      CLOUDY    52  42  69 CALM      30.04R                  
ORANGE         CLOUDY    53  44  71 CALM      30.04S                  
SPRINGFIELD    CLOUDY    54  40  59 S5        30.03S                  
WESTFIELD      CLOUDY    54  41  61 S9        30.04S                  
NORTH ADAMS    CLOUDY    52  45  77 CALM      30.03F                  
PITTSFIELD     CLOUDY    50  44  80 CALM      30.02F                  
$$
 
RIZALL-140500-
RHODE ISLAND
  
CITY           SKY/WX    TMP DP  RH WIND       PRES   REMARKS
PROVIDENCE     MOCLDY    49  42  77 S5        30.06R                  
NEWPORT        PTCLDY    44  39  82 SE6       30.05S                  
BLOCK ISLAND   CLEAR     40  38  93 W3        30.08R                  
SMITHFIELD     MOCLDY    48  41  76 CALM      30.06R                  
WESTERLY       CLEAR     43  39  86 CALM      30.06S                  
$$
 
CTZALL-140500-
CONNECTICUT
  
CITY           SKY/WX    TMP DP  RH WIND       PRES   REMARKS
BRADLEY INTL   CLOUDY    53  40  61 S9        30.05S                  
HARTFORD       CLOUDY    51  40  65 S6        30.07S                  
BRIDGEPORT     CLEAR     46  40  79 CALM      30.09S                  
DANBURY        CLOUDY    50  38  63 VRB3      30.08S                  
GROTON         CLEAR     45  41  86 CALM      30.06S                  
NEW HAVEN      MOCLDY    48  42  80 CALM      30.08S                  
CHESTER        FAIR      45  41  87 W5        30.07S                  
MERIDEN        CLOUDY    48  40  73 CALM      30.08S                  
WILLIMANTIC    MOCLDY    48  40  73 CALM      30.06F                  
OXFORD         CLOUDY    46  42  86 S3        30.08S                  
$$

MEZ002-015-021-024-NHZ003-005-008-011-012-014-VTZ005-008-140500-
NORTHERN NEW ENGLAND
  
CITY           SKY/WX    TMP DP  RH WIND       PRES   REMARKS
PORTLAND ME    CLOUDY    44  40  85 CALM      30.09R                  
BANGOR ME      CLEAR     42  32  67 NE10G18   30.10R                  
CONCORD NH     CLOUDY    53  40  61 SE5       30.03R                  
MANCHESTER NH  MOCLDY    55  40  56 SE9       30.03R                  
NASHUA NH      CLOUDY    54  42  64 SE7       30.05R                  
PORTSMOUTH NH  MOCLDY    46  38  72 E8        30.08R                  
JAFFREY NH     MOCLDY    45  41  86 CALM      30.03S                  
KEENE NH       CLOUDY    51  46  83 CALM      30.03S                  
BURLINGTON VT  PTCLDY    56  41  57 W5        30.02S                  
MT. WASHINGTON NOT AVBL                                               
$$

NYZ052-076-140500-
EASTERN NEW YORK
  
CITY           SKY/WX    TMP DP  RH WIND       PRES   REMARKS
ALBANY         CLOUDY    55  42  61 W6        30.03S                  
NEW YORK CITY  PTCLDY    51  39  63 S7        30.07S                  
$$
 
ANZALL-140500-
MARINE OBSERVATIONS
  
STATION/POSITION TIME  TEMP    WIND        PRES    VSBY  WAVE
                       AIR SEA DIR/SP/G                  HT/PER
                 (UTC) (F)     (DEG/KT/KT) (MB)    (MI)  (FT/S)
BOSTON BUOY      0340   45 44  120/  6/  8 1018.4S
BUZZARDS BAY     0300          100/ 10/ 10 1018.9S
NANTUCKET SOUND  0340      47                N/A
MASS BAY-STELLWA 0304   46     160/  4/  6 1017.1R  1 7/8  4/ 8
ISLE OF SHOALS   0300   46     140/  8/  9 1017.8R
S OF BLOCK IS    0326      44                N/A           3/ 8
$$

......................KEY.........................
  SKY/WX - SKY CONDITION/PRESENT WEATHER
  TMP    - TEMPERATURE IN FAHRENHEIT
  DWPT   - DEWPOINT IN FAHRENHEIT
  RH     - RELATIVE HUMIDITY IN PERCENT
  WIND   - DIRECTION AND SPEED IN MPH
  PRES   - MEAN SEA LEVEL PRESSURE IN INCHES OF HG
  WCI    - WIND CHILL INDEX
  VSB    - VISIBILITY IN MILES
  HX     - HEAT INDEX
  TC     - TEMPERATURE IN CELSIUS
  VRB    - VARIABLE WIND DIRECTION
  N/A    - NOT AVAILABLE
  
      

Other recent Regional Weather Roundups

Fri Apr 16, 9:04am

Fri Apr 16, 8:04am

Fri Apr 16, 7:04am

Fri Apr 16, 6:04am

Fri Apr 16, 5:04am

Fri Apr 16, 4:04am

Fri Apr 16, 3:04am

Fri Apr 16, 2:04am

Fri Apr 16, 1:04am

Fri Apr 16, 12:04am

Thu Apr 15, 11:05pm

Thu Apr 15, 10:04pm

Thu Apr 15, 9:04pm

Thu Apr 15, 8:04pm

Thu Apr 15, 7:05pm

Thu Apr 15, 6:04pm

Thu Apr 15, 5:05pm

Thu Apr 15, 4:04pm

Thu Apr 15, 3:05pm

Thu Apr 15, 2:04pm

Thu Apr 15, 1:05pm

Thu Apr 15, 12:04pm

Thu Apr 15, 11:04am

Thu Apr 15, 10:05am

Thu Apr 15, 9:04am

Thu Apr 15, 8:04am

Thu Apr 15, 7:04am

Thu Apr 15, 6:04am

Thu Apr 15, 5:04am

Thu Apr 15, 4:04am

Thu Apr 15, 3:04am

Thu Apr 15, 2:04am

Thu Apr 15, 1:04am

Thu Apr 15, 12:04am

Wed Apr 14, 11:04pm

Wed Apr 14, 10:04pm

Wed Apr 14, 9:04pm

Wed Apr 14, 8:04pm

Wed Apr 14, 7:04pm

Wed Apr 14, 6:04pm

Wed Apr 14, 5:05pm

Wed Apr 14, 4:04pm

Wed Apr 14, 3:05pm

Wed Apr 14, 2:04pm

Wed Apr 14, 1:05pm

Wed Apr 14, 12:04pm

Wed Apr 14, 11:04am

Wed Apr 14, 10:04am

Wed Apr 14, 9:04am

Wed Apr 14, 8:04am

Wed Apr 14, 7:04am

Wed Apr 14, 6:04am

Wed Apr 14, 5:04am

Wed Apr 14, 4:04am

Wed Apr 14, 3:04am

Wed Apr 14, 2:04am

Wed Apr 14, 1:04am

Tue Apr 13, 11:04pm

Tue Apr 13, 10:05pm

Tue Apr 13, 9:05pm

Tue Apr 13, 8:05pm

Tue Apr 13, 7:04pm

Tue Apr 13, 6:04pm

Tue Apr 13, 5:05pm

Tue Apr 13, 4:04pm

Tue Apr 13, 3:04pm

Tue Apr 13, 2:05pm

Tue Apr 13, 1:04pm

Tue Apr 13, 12:05pm

Tue Apr 13, 11:05am

Tue Apr 13, 10:04am

Tue Apr 13, 9:04am

Tue Apr 13, 8:04am

Tue Apr 13, 7:04am

Tue Apr 13, 6:04am

Tue Apr 13, 5:04am

Tue Apr 13, 4:04am

Tue Apr 13, 3:04am

Tue Apr 13, 2:04am

Tue Apr 13, 1:04am

Tue Apr 13, 12:05am

Mon Apr 12, 11:04pm

Mon Apr 12, 10:04pm

Mon Apr 12, 9:04pm

Mon Apr 12, 8:04pm

Mon Apr 12, 7:05pm

Mon Apr 12, 6:04pm

Mon Apr 12, 5:04pm

Mon Apr 12, 4:04pm

Mon Apr 12, 3:05pm

Mon Apr 12, 2:04pm

Mon Apr 12, 1:05pm

Mon Apr 12, 12:04pm

Mon Apr 12, 11:04am

Mon Apr 12, 10:04am

Mon Apr 12, 9:04am

Mon Apr 12, 8:04am

Mon Apr 12, 7:04am

Mon Apr 12, 6:04am

Mon Apr 12, 5:04am

Mon Apr 12, 4:04am

Mon Apr 12, 3:04am

Mon Apr 12, 2:04am

Mon Apr 12, 1:05am

Mon Apr 12, 12:04am

Sun Apr 11, 11:04pm

Sun Apr 11, 10:04pm

Sun Apr 11, 9:04pm

Sun Apr 11, 8:04pm

Sun Apr 11, 7:04pm

Sun Apr 11, 6:05pm

Sun Apr 11, 5:05pm

Sun Apr 11, 4:04pm

Sun Apr 11, 3:05pm

Sun Apr 11, 2:05pm

Sun Apr 11, 1:05pm

Sun Apr 11, 12:04pm

Sun Apr 11, 11:05am

Sun Apr 11, 10:05am

Sun Apr 11, 9:04am

Sun Apr 11, 8:04am

Sun Apr 11, 7:04am

Sun Apr 11, 6:04am

Sun Apr 11, 5:04am

Sun Apr 11, 4:04am

Sun Apr 11, 3:04am

Sun Apr 11, 2:04am

Sun Apr 11, 1:05am

Sun Apr 11, 12:04am

Sat Apr 10, 11:05pm

Sat Apr 10, 10:04pm

Sat Apr 10, 9:04pm

Sat Apr 10, 8:04pm

Sat Apr 10, 7:05pm

Sat Apr 10, 6:04pm

Sat Apr 10, 5:04pm

Sat Apr 10, 4:04pm

Sat Apr 10, 3:04pm

Sat Apr 10, 2:05pm

Sat Apr 10, 1:04pm

Sat Apr 10, 12:04pm

Sat Apr 10, 11:04am

Sat Apr 10, 10:04am

Sat Apr 10, 9:04am

Sat Apr 10, 8:04am

Sat Apr 10, 7:04am

Sat Apr 10, 6:04am

Sat Apr 10, 5:04am

Sat Apr 10, 4:04am

Sat Apr 10, 3:04am

Sat Apr 10, 2:04am

Sat Apr 10, 1:05am

Sat Apr 10, 12:04am

Fri Apr 9, 11:04pm

Fri Apr 9, 10:05pm

Fri Apr 9, 9:04pm

Fri Apr 9, 8:05pm

Fri Apr 9, 7:05pm

Fri Apr 9, 6:04pm

Fri Apr 9, 5:04pm

Fri Apr 9, 4:05pm

Fri Apr 9, 3:05pm

Fri Apr 9, 2:04pm

Fri Apr 9, 1:04pm

Fri Apr 9, 12:04pm

Fri Apr 9, 11:05am

Fri Apr 9, 10:04am

Fri Apr 9, 9:04am

Meta data:

ID: 6e6d669c-7ef8-417c-8f86-cc0c254d0abb
Link: https://api.weather.gov/products/6e6d669c-7ef8-417c-8f86-cc0c254d0abb